Regional Weather Roundup
Issued by NWS Albany, NY

Home | Current Version | Previous Version | Graphics & Text | Print | Product List | Glossary Off
Versions: 1 2 3 4 5 6 7 8 9 10 11 12 13 14 15 16 17 18 19 20 21 22 23 24 25 26 27 28 29 30 31 32 33 34 35 36 37 38 39 40 41 42 43 44 45 46 47 48 49 50

000
ASUS41 KALY 281910
RWRALY

NEW YORK STATE HOURLY WEATHER ROUNDUP
NATIONAL WEATHER SERVICE ALBANY NY
300 PM EDT FRI AUG 28 2015

NOTE: "FAIR" INDICATES FEW OR NO CLOUDS BELOW 12,000 FEET WITH NO
SIGNIFICANT WEATHER AND/OR NO OBSTRUCTIONS TO VISIBILITY.

NYZ032-033-038>043-046>054-057>066-NYZ062>081-282000-
EAST


CITY           SKY/WX    TMP DP  RH WIND       PRES   REMARKS
ALBANY         PTSUNNY   75  52  44 VRB3      30.15F
GLENS FALLS    PTSUNNY   76  56  49 SE8       30.14F
POUGHKEEPSIE   MOSUNNY   77  52  41 CALM      30.15F
NEWBURGH       MOSUNNY   73  55  53 N8        30.18F
MONTGOMERY     MOSUNNY   76  55  48 VRB3      30.16F
WHITE PLAINS   MOSUNNY   77  51  40 NW8       30.15F
ISLIP          MOSUNNY   79  50  36 NW7       30.13F
NEW YORK CITY  MOSUNNY   79  49  34 NW5       30.14F
CENTRAL PARK   SUNNY     82  50  32 VRB3      30.17F
$$

NYZ005>009-017-018-044>046-055-056-282000-
CENTRAL


CITY           SKY/WX    TMP DP  RH WIND       PRES   REMARKS
FULTON         PTSUNNY   71  57  61 NW7       30.20R
SYRACUSE       PTSUNNY   73  54  51 W10       30.18S
ROME           CLOUDY    71  54  54 W7        30.19S
ELMIRA         SUNNY     73  53  49 W5        30.18F
BINGHAMTON     CLOUDY    69  52  54 SW6       30.21F
MONTICELLO     PTSUNNY   70  54  56 SW5       30.21S
$$

NYZ026>034-041>043-282000-
NORTH


CITY           SKY/WX    TMP DP  RH WIND       PRES   REMARKS
WATERTOWN      SUNNY     71  55  56 W15       30.19R
FORT DRUM      NOT AVBL
MASSENA        PTSUNNY   72  55  55 W9        30.15F
SARANAC LAKE   PTSUNNY   70  51  51 W7        30.17F
PLATTSBURGH    SUNNY     72  58  61 SE7       30.13F
$$

NYZ001>004-010>016-019>021-282000-
WEST


CITY           SKY/WX    TMP DP  RH WIND       PRES   REMARKS
NIAGARA FALLS  PTSUNNY   71  55  56 S9        30.19S
BUFFALO        MOSUNNY   73  54  51 SW9       30.20R
DUNKIRK        SUNNY     71  59  65 NW8       30.21S
JAMESTOWN      PTSUNNY   70  52  52 W5        30.22S
WELLSVILLE     MOSUNNY   72  51  47 NW7       30.24F
ROCHESTER      PTSUNNY   74  54  49 VRB5      30.19F
PENN YAN       MOSUNNY   72  52  49 CALM      30.20F
$$

             KEY
       WCI = WIND CHILL INDEX
       VSB = VISIBILITY
       HX  = HEAT INDEX
$$


USA.gov is the U.S. government's official web portal to all federal, state and local government web resources and services.